OPS 4682 DEB, 38418

Orbit data source: Space-Track

OPS 4682 DEB, 38418 is space debris in LEO originally from a launch on Sat, 03 Apr 1965 UTC launched from the Air Force Western Test Range (AFWTR). Debris objects in space refer to the collection of defunct objects orbiting the Earth. Examples of debris include non-operational satellites, rocket bodies, and fragments generated from explosions, collisions, or faulty payload assembly.

Loading next visibility...
Identifier
38418, 1965-027DX
Orbit
LEO
Country
Flag of USUS
Related business
Manufacturer
Unknown
Mission
Spacecraft
Bus & Motor
Unknown
Mass
Unknown
Launch date (UTC)
1965-04-03 (61 years ago)
Launch vehicle
Unknown
Launch site
Air Force Western Test Range (AFWTR)
Object type
Payload
Rocket body
Debris
Shape & HBR
Unknown shape, 0.1 m
Radar Cross Section
Small (<0.1 m²)

Expand to show TLE details & history
Last TLE update: 1 day ago

TLE from 1 day ago
0 OPS 4682 DEB
1 38418U 65027DX  25348.99648196 -.00000437  00000-0 -14549-2 0  9999
2 38418  90.2368   4.6895 0028269 347.4234  12.6180 13.00889117527606
Epoch: 2025-12-14T23:54Z
TLE epoch observation values (Epoch: 2025-12-14T23:54:56.041Z)
Latitude
-0.00003°
Longitude
-77.94539°
Altitude
1,240.422 km
Speed
7.245 km/s
True Right ascension
00h 18m 45s
True Declination
0° 00' 00"
Sunlit
Object was in daylight at epoch
Visualization orbit readout
Latitude
Unknown
Longitude
Unknown
Altitude
Unknown
Speed
Unknown
Apparent Right ascension
Unknown
Apparent Declination
Unknown
Sunlit
N/A
Visualization observer readout
Local Sidereal Time
22:10:23
Azimuth
Unknown
Elevation
Unknown
Doppler factor
Unknown
Orbital elements
Apogee altitude
1,277.311 km
Perigee altitude
1,234.15 km
Semi-major axis
7,633.868 km
Eccentricity
0.00283
Inclination
90.2368°
RAAN
4.6895°
Arg. of periapsis
347.4234°
True anomaly
12.68901°
Mean anomaly
12.618°
Eccentric anomaly
12.65348°
Mean motion
3.25407 °/min
Orbital period
110.63 mins
BSTAR
-0.0014549
Loading maneuver chart data...
Computing Atmospheric mass density...
Loading historical data...
Loading historical data...
Loading historical data...
Loading historical data...
Loading historical data...
Loading historical data...
Loading historical data...

Documentation

Showing up to 5 results
|